Regional Weather Roundup
Issued by NWS

Home | Current Version | Previous Version | Text Only | Print | Product List | Glossary Off
Versions: 1 2 3 4 5 6 7 8 9 10 11 12 13 14 15 16 17 18 19 20 21 22 23 24 25 26 27 28 29 30 31 32 33 34 35 36 37 38 39 40 41 42 43 44 45 46 47 48 49 50

000
ASUS43 KLSX 292307
RWRMO

WEATHER SUMMARY FOR MISSOURI
NATIONAL WEATHER SERVICE SPRINGFIELD MO
600 PM CDT FRI AUG 29 2014

NOTE: "FAIR" INDICATES FEW OR NO CLOUDS BELOW 12,000 FEET WITH NO
       SIGNIFICANT WEATHER AND/OR OBSTRUCTIONS TO VISIBILITY.
       CURRENT SKY AND/OR WEATHER CONDITIONS ARE NOT AVAILABLE FOR
       CHILLICOTHE AND FARMINGTON.

MOZ001>031-035>038-043-044-053-054-300000-
...NORTHERN AND WESTERN MISSOURI...

CITY           SKY/WX    TMP DP  RH WIND       PRES   REMARKS
KANSAS CTY INT MOSUNNY   83  67  58 S10       29.80F
KANSAS C DTWN  SUNNY     84  68  58 S9        29.79F
LEE`S SUMMIT   MOSUNNY   82  67  60 S12       29.83F
ST JOSEPH      MOSUNNY   81  70  69 S7        29.79S
CHILLICOTHE      N/A     79  69  71 VRB7      29.82F
KIRKSVILLE     PTSUNNY   77  72  84 S6        29.83R

$$
MOZ066>068-077>081-088>096-101>105-300000-
...SOUTHWEST MISSOURI...

CITY           SKY/WX    TMP DP  RH WIND       PRES   REMARKS
SPRINGFIELD    CLOUDY    84  63  49 W6        29.88S
JOPLIN         MOSUNNY   88  63  43 SW13      29.86F

$$
MOZ032>034-039>042-045>050-055>058-069>072-300000-
...CENTRAL MISSOURI...

CITY           SKY/WX    TMP DP  RH WIND       PRES   REMARKS
COLUMBIA       MOSUNNY   79  72  79 S8        29.85F
JEFFERSON CITY PTSUNNY   81  74  79 SE9       29.84F
ROLLA          CLOUDY    78  69  73 S5        29.87S
SEDALIA        CLOUDY    81  68  64 SW8       29.85S
WHITEMAN AFB   PTSUNNY   82  68  64 SW10      29.84S
OSAGE BEACH    PTSUNNY   77  68  73 S9        29.87R

$$
MOZ051-052-059>065-300000-
...EAST CENTRAL MISSOURI...

CITY           SKY/WX    TMP DP  RH WIND       PRES   REMARKS
ST LOUIS INTL  PTSUNNY   90  64  42 SE18      29.85S HX  91
SPIRIT OF STL  PTSUNNY   84  67  56 W16G22    29.85R
ST CHARLES     MOSUNNY   86  66  51 S13       29.83S

$$
MOZ072>076-082>087-097>100-106>115-300000-
...SOUTH CENTRAL AND SOUTHEAST MISSOURI...

CITY           SKY/WX    TMP DP  RH WIND       PRES   REMARKS
CAPE GIRARDEAU CLOUDY    77  71  82 S7        29.93S
FARMINGTON     PTSUNNY   81  66  61 S8        29.93S
POPLAR BLUFF   MOSUNNY   82  67  60 SE8       29.89F
WEST PLAINS    CLOUDY    75  68  78 SW7       29.93F

$$



USA.gov is the U.S. government's official web portal to all federal, state and local government web resources and services.